Weather History for Boscombe Down, United Kingdom

Change the Weather History Date:

Monday, December 2, 2013

  Actual Average Record
Temperature  
Mean Temperature 43 °F -  
Max Temperature 47 °F 42 °F 53 °F (2007)
Min Temperature 39 °F 35 °F 23 °F (2010)
Degree Days  
Heating Degree Days 22    
Moisture  
Dew Point 39 °F    
Average Humidity 79    
Maximum Humidity 93    
Minimum Humidity 61    
Precipitation  
Precipitation 0.00 in - - ()
Sea Level Pressure  
Sea Level Pressure 30.51 in    
Wind  
Wind Speed 4 mph ()    
Max Wind Speed 8 mph    
Max Gust Speed -    
Visibility 7.9 miles    
Events      
Averages and records for this station are not official NWS values.
T = Trace of Precipitation, MM = Missing Value Source: Averaged Metar Reports

Daily Weather History Graph

Daily Weather History Graph

Search for Another Location

Airport:

Trip Planner

Search our weather history database for the weather conditions in past years. The results will help you decide how hot, cold, wet, or windy it might be!

Date:

Astronomy

Dec. 02, 2013 Rise Set
Actual Time 7:50 AM GMT 4:02 PM GMT
Civil Twilight 7:11 AM GMT 4:41 PM GMT
Nautical Twilight 6:29 AM GMT 5:23 PM GMT
Astronomical Twilight 5:49 AM GMT 6:03 PM GMT
Moon 6:53 AM GMT (12/2) 3:56 PM GMT (12/2)
Length of Visible Light 9h 29m
Length of Day
8h 12m
Waning Crescent, 0% of the Moon is Illuminated
Dec 2
Waning Crescent
Dec 3
New
Dec 9
First Quarter
Dec 17
Full
Dec 25
Last Quarter

Hourly Weather History & Observations

Time (GMT) Temp. Windchill Dew Point Humidity Pressure Visibility Wind Dir Wind Speed Gust Speed Precip Events Conditions
12:00 AM 44 °F - 40 °F 80% 30.58 in 16 mi ENE 3.5 mph - -   Overcast
12:50 AM 44.6 °F 42.2 °F 39.2 °F 81% 30.57 in 6.2 mi NE 4.6 mph - N/A   Overcast
1:50 AM 44.6 °F 43.1 °F 39.2 °F 81% 30.54 in 6.2 mi ENE 3.5 mph - N/A   Overcast
2:50 AM 42.8 °F 41.1 °F 39.2 °F 87% 30.54 in 6.2 mi East 3.5 mph - N/A   Overcast
3:00 AM 43 °F - 40 °F 85% 30.58 in 14 mi East 3.5 mph - -   Overcast
3:50 AM 44.6 °F 42.2 °F 41.0 °F 87% 30.54 in 6.2 mi ENE 4.6 mph - N/A   Overcast
4:50 AM 44.6 °F 43.1 °F 41.0 °F 87% 30.54 in 6.2 mi East 3.5 mph - N/A   Overcast
5:50 AM 44.6 °F 41.4 °F 41.0 °F 87% 30.54 in 6.2 mi NE 5.8 mph - N/A   Overcast
6:00 AM 44 °F - 40 °F 82% 30.57 in 9 mi NE 5.8 mph - -   Overcast
6:50 AM 44.6 °F 42.2 °F 39.2 °F 81% 30.54 in 6.2 mi NE 4.6 mph - N/A   Overcast
7:50 AM 42.8 °F 38.6 °F 39.2 °F 87% 30.54 in 6.2 mi ENE 6.9 mph - N/A   Mostly Cloudy
8:50 AM 44.6 °F 40.7 °F 37.4 °F 76% 30.54 in 6.2 mi ENE 6.9 mph - N/A   Mostly Cloudy
9:00 AM 45 °F - 37 °F 66% 30.57 in 12 mi ENE 6.9 mph - -   Mostly Cloudy
9:50 AM 44.6 °F 42.2 °F 39.2 °F 81% 30.54 in 6.2 mi East 4.6 mph - N/A   Mostly Cloudy
10:50 AM 44.6 °F 41.4 °F 41.0 °F 87% 30.54 in 6.2 mi East 5.8 mph - N/A   Mostly Cloudy
11:50 AM 46.4 °F 42.4 °F 37.4 °F 71% 30.51 in 6.2 mi East 8.1 mph - N/A   Mostly Cloudy
12:00 PM 47 °F - 38 °F 61% 30.54 in 14 mi East 8.1 mph - -   Mostly Cloudy
12:50 PM 46.4 °F 43.5 °F 37.4 °F 71% 30.51 in 6.2 mi ESE 5.8 mph - N/A   Mostly Cloudy
1:50 PM 46.4 °F 44.3 °F 39.2 °F 76% 30.48 in 6.2 mi ENE 4.6 mph - N/A   Overcast
2:50 PM 46.4 °F 44.3 °F 37.4 °F 71% 30.48 in 6.2 mi NNE 4.6 mph - N/A   Overcast
3:00 PM 46 °F - 38 °F 64% 30.50 in 16 mi NNE 4.6 mph - -   Overcast
3:50 PM 46.4 °F 43.5 °F 39.2 °F 76% 30.48 in 6.2 mi NNE 5.8 mph - N/A   Overcast
4:50 PM 46.4 °F 42.9 °F 37.4 °F 71% 30.48 in 6.2 mi NE 6.9 mph - N/A   Overcast
5:50 PM 44.6 °F 41.4 °F 37.4 °F 76% 30.48 in 6.2 mi NNE 5.8 mph - N/A   Mostly Cloudy
6:00 PM 44 °F - 37 °F 70% 30.50 in 12 mi NNE 5.8 mph - -   Mostly Cloudy
6:50 PM 42.8 °F 40.1 °F 37.4 °F 81% 30.48 in 6.2 mi NE 4.6 mph - N/A   Mostly Cloudy
7:50 PM 42.8 °F 39.3 °F 37.4 °F 81% 30.48 in 6.2 mi North 5.8 mph - N/A   Overcast
8:50 PM 41.0 °F 38.0 °F 37.4 °F 87% 30.45 in 6.2 mi NE 4.6 mph - N/A   Overcast
9:00 PM 41 °F - 37 °F 81% 30.49 in 12 mi NE 4.6 mph - -   Overcast
9:50 PM 39.2 °F 35.9 °F 37.4 °F 93% 30.45 in 6.2 mi North 4.6 mph - N/A   Overcast
10:50 PM 41.0 °F 39.0 °F 37.4 °F 87% 30.45 in 6.2 mi North 3.5 mph - N/A   Overcast
11:50 PM 41.0 °F 39.0 °F 37.4 °F 87% 30.45 in 6.2 mi North 3.5 mph - N/A   Overcast